TimeCDT,TemperatureF,Dew PointF,Humidity,Sea Level PressureIn,VisibilityMPH,Wind Direction,Wind SpeedMPH,Gust SpeedMPH,PrecipitationIn,Events,Conditions,WindDirDegrees,DateUTC
12:53 AM,62.1,57.9,86,29.72,10.0,South,15.0,23.0,N/A,,Clear,170,2013-05-31 05:53:00
1:53 AM,62.1,59.0,90,29.71,10.0,SSW,13.8,-,N/A,,Clear,200,2013-05-31 06:53:00
2:53 AM,61.0,57.9,90,29.72,10.0,South,8.1,-,N/A,,Clear,190,2013-05-31 07:53:00
3:53 AM,60.1,57.9,93,29.73,10.0,South,10.4,-,N/A,,Partly Cloudy,180,2013-05-31 08:53:00
4:34 AM,60.8,59.0,94,29.73,10.0,South,9.2,-,N/A,,Scattered Clouds,180,2013-05-31 09:34:00
4:42 AM,60.8,59.0,94,29.72,10.0,South,8.1,-,N/A,,Mostly Cloudy,180,2013-05-31 09:42:00
4:49 AM,60.8,59.0,94,29.73,10.0,South,8.1,-,N/A,,Scattered Clouds,180,2013-05-31 09:49:00
4:53 AM,60.1,57.9,93,29.72,10.0,South,9.2,-,N/A,,Scattered Clouds,180,2013-05-31 09:53:00
5:31 AM,60.8,59.0,94,29.71,10.0,SSE,10.4,-,N/A,,Mostly Cloudy,150,2013-05-31 10:31:00
5:53 AM,61.0,59.0,93,29.71,10.0,South,12.7,-,N/A,,Overcast,170,2013-05-31 10:53:00
6:53 AM,62.1,60.1,93,29.70,10.0,South,12.7,-,N/A,,Mostly Cloudy,170,2013-05-31 11:53:00
7:11 AM,62.6,60.8,94,29.71,10.0,South,12.7,-,N/A,,Scattered Clouds,170,2013-05-31 12:11:00
7:53 AM,64.0,60.1,87,29.61,10.0,SSE,23.0,44.9,0.01,Rain,Light Rain,150,2013-05-31 12:53:00
8:12 AM,64.4,59.0,83,29.69,10.0,WSW,10.4,24.2,0.00,,Partly Cloudy,250,2013-05-31 13:12:00
8:53 AM,66.9,57.9,73,29.68,10.0,South,17.3,-,0.00,,Clear,190,2013-05-31 13:53:00
9:53 AM,66.9,55.9,68,29.70,10.0,South,24.2,34.5,N/A,,Clear,180,2013-05-31 14:53:00
10:53 AM,64.9,55.9,73,29.72,10.0,South,11.5,-,N/A,,Clear,180,2013-05-31 15:53:00
11:53 AM,69.1,59.0,70,29.74,10.0,SW,13.8,-,N/A,,Partly Cloudy,220,2013-05-31 16:53:00
12:53 PM,72.0,60.1,66,29.74,10.0,South,19.6,26.5,N/A,,Partly Cloudy,190,2013-05-31 17:53:00
1:53 PM,70.0,60.1,71,29.74,10.0,SSW,20.7,26.5,N/A,,Mostly Cloudy,200,2013-05-31 18:53:00
2:53 PM,71.1,61.0,70,29.73,10.0,SSW,10.4,-,0.00,,Overcast,200,2013-05-31 19:53:00
3:53 PM,73.9,62.1,66,29.71,10.0,South,12.7,-,N/A,,Clear,190,2013-05-31 20:53:00
4:53 PM,75.9,64.0,67,29.70,10.0,South,9.2,-,N/A,,Scattered Clouds,180,2013-05-31 21:53:00
5:53 PM,73.9,64.0,71,29.66,10.0,South,11.5,-,N/A,,Clear,170,2013-05-31 22:53:00
6:53 PM,73.9,64.0,71,29.69,10.0,SW,6.9,-,N/A,,Clear,220,2013-05-31 23:53:00
7:53 PM,73.0,64.9,76,29.66,10.0,South,11.5,-,N/A,,Clear,180,2013-06-01 00:53:00
8:53 PM,71.1,64.9,81,29.66,10.0,South,11.5,-,N/A,,Clear,170,2013-06-01 01:53:00
9:53 PM,68.0,64.9,90,29.71,10.0,SSW,4.6,-,N/A,,Clear,210,2013-06-01 02:53:00
10:53 PM,66.0,64.9,96,29.70,10.0,SSW,6.9,-,N/A,,Clear,200,2013-06-01 03:53:00
11:53 PM,66.0,64.0,93,29.67,8.0,South,10.4,-,N/A,,Clear,180,2013-06-01 04:53:00